Regional Weather Roundup
Issued by NWS

Home | Current Version | Previous Version | Graphics & Text | Print | Product List | Glossary On
Versions: 1 2 3 4 5 6 7 8 9 10 11 12 13 14 15 16 17 18 19 20 21 22 23 24 25 26 27 28 29 30 31 32 33 34 35 36 37 38 39 40 41 42 43 44 45 46 47 48 49 50
000
ASUS45 KTFX 011419
RWRMT
MONTANA REGIONAL WEATHER ROUNDUP
NATIONAL WEATHER SERVICE GREAT FALLS MT
800 AM MDT TUE SEP 01 2015

NOTE: "FAIR" INDICATES FEW OR NO CLOUDS BELOW 12000 FEET WITH NO
SIGNIFICANT WEATHER AND/OR OBSTRUCTIONS TO VISIBILITY.

MTZ001>007-043-011500-
WEST OF THE DIVIDE

CITY           SKY/WX    TMP DP  RH WIND       PRES   REMARKS
KALISPELL      CLOUDY    52  43  71 CALM      29.91R
MISSOULA       PTSUNNY   44  41  89 W3        29.97R
BUTTE          MOSUNNY   40  36  86 CALM      30.03S
MULLAN PASS    MOCLDY    44  40  85 VRB5      30.00R
DEER LODGE       N/A     46  37  71 CALM      30.02S
EUREKA           N/A     61  41  48 SE10G18   29.88R
HAMILTON         N/A     48  43  81 CALM      29.97R
LIBBY            N/A     61  39  44 E6        29.89R
PLAINS           N/A     44  38  79 CALM      29.94R
RONAN            N/A     49  43  80 CALM      29.98S
THOMPSON FALLS   N/A     42  40  93 CALM      29.98R
$$

MTZ008-052>055-011500-
SOUTHWEST MONTANA

CITY           SKY/WX    TMP DP  RH WIND       PRES   REMARKS
BOZEMAN        SUNNY     47  40  76 SE5       29.98R
DILLON         MOSUNNY   54  32  43 S12       30.01R
W YELLOWSTONE  SUNNY     37  28  70 CALM      30.14R
THREE FORKS      N/A     44  23  43 CALM      29.97R
TWIN BRIDGES     N/A     46  31  56 E3        30.00R
$$

MTZ009-010-012-014-046-048-049-054-011500-
EAST SLOPES AND CENTRAL MONTANA

CITY           SKY/WX    TMP DP  RH WIND       PRES   REMARKS
CUT BANK       PTSUNNY   62  33  33 SW26G39   29.78F
GREAT FALLS    PTSUNNY   65  40  39 SW16      29.84R
MALMSTROM AFB  PTSUNNY   65  41  41 SW18      29.85R
HELENA         SUNNY     52  40  63 CALM      29.94S
CONRAD           N/A     57  37  47 W2        29.85R
$$

MTZ011-013-016-021-045-047-050-051-011500-
NORTH CENTRAL MONTANA

CITY           SKY/WX    TMP DP  RH WIND       PRES   REMARKS
HAVRE          CLOUDY    60  42  51 SW15      29.76R
LEWISTOWN      MOSUNNY   52  41  66 E5        29.90R
N BAR RANCH      N/A     57  41  54 W6        29.93S
CHINOOK          N/A     54  43  66 CALM      29.76S
FORT BENTON      N/A     66  41  39 S9        29.81S
$$

MTZ017>020-022>027-061-062-011500-
NORTHEAST MONTANA

CITY           SKY/WX    TMP DP  RH WIND       PRES   REMARKS
GLASGOW        SUNNY     56  42  59 E12       29.78F
JORDAN           N/A     51  35  54 W6        29.82R
SIDNEY         SUNNY     57  48  72 S3        29.83S
WOLF POINT     SUNNY     52  44  74 E5        29.81F
MALTA            N/A     50  45  83 CALM      29.75S
PLENTYWOOD       N/A     57  41  54 SE5       29.82S
POPLAR           N/A     57  41  54 CALM      29.81F
SCOBEY           N/A     52  41  66 S1        29.80
$$

MTZ028>42-056>058-011500-
SOUTHCENTRAL AND SOUTHEAST MONTANA

CITY           SKY/WX    TMP DP  RH WIND       PRES   REMARKS
BAKER          SUNNY     64  57  78 SE7       29.87F
BILLINGS       MOSUNNY   56  37  49 W6        29.90R
LIVINGSTON     SUNNY     52  33  48 NW16G26   29.95S
MILES CITY     SUNNY     60  54  80 SE7       29.84S
FORSYTH          N/A     57  45  62 CALM      29.83S
LAUREL           N/A     54  36  50 W1        29.89R
ROUNDUP          N/A     52  35  52 S16       29.80S
$$

REGIONAL REPORTS...DAKOTAS

CITY           SKY/WX    TMP DP  RH WIND       PRES   REMARKS
WILLISTON      SUNNY     57  48  72 CALM      29.83S
MINOT          SUNNY     65  50  58 S9        29.83S
DICKINSON      SUNNY     66  57  72 S8        29.85F
BEACH            N/A     63  59  88 S9        29.87S
CROSBY           N/A     59  46  63 S9        29.82S
BISMARCK       SUNNY     59  53  80 E5        29.89S
GRAND FORKS    SUNNY     63  54  72 SE7       29.86S
FARGO          SUNNY     67  62  84 CALM      29.88F
BUFFALO SD       N/A     60  57  89 S3        29.83R
RAPID CITY     SUNNY     63  56  78 NW9       29.88S
$$

REGIONAL REPORTS...WYOMING/IDAHO/WASHINGTON

CITY           SKY/WX    TMP DP  RH WIND       PRES   REMARKS
GILLETTE       SUNNY     65  43  44 SW7       29.95R
SHERIDAN       PTSUNNY   60  44  55 E3        29.92S
BUFFALO WY     MOSUNNY   67  36  31 CALM      29.98S
CODY           MOSUNNY   61  34  36 CALM      29.99S
YELLOWSTONE LA   N/A     36  32  85 CALM      30.22R
IDAHO FALLS    SUNNY     47  39  74 N3        30.02R
SALMON         SUNNY     46  37  71 CALM      30.01R
BOISE          CLEAR     60  37  42 S3        29.91R
SPOKANE        PTCLDY    52  45  77 S13       29.91R
$$

REGIONAL REPORTS...ALBERTA

CITY           SKY/WX    TMP DP  RH WIND       PRES   REMARKS
EDMONTON       MOSUNNY   50  43  76 W10G18    29.53R
CALGARY        MOSUNNY   48  41  76 NE3       29.63R
LETHBRIDGE     MOSUNNY   63  37  39 SW15      29.71S
MEDICINE HAT   MOSUNNY   57  41  54 SW13      29.69R
WATERTON GATE    N/A     59  36  41 SW18G32     N/A
CARDSTON         N/A     61  34  36 NE5         N/A
MILK RIVER       N/A     55  37  50 SW3         N/A
ONEFOUR          N/A     64  32  29 W13G18      N/A
$$

REGIONAL REPORTS...SASKATCHEWAN

CITY           SKY/WX    TMP DP  RH WIND       PRES   REMARKS
SWIFT CURRENT  SUNNY     57  39  51 SW16G22   29.71S
REGINA         PTSUNNY   57  52  82 SW3       29.75F
SASKATOON      MOSUNNY   55  45  67 S13       29.65S
CYPRESS HILLS    N/A     48  34  57 SW6         N/A
VAL MARIE        N/A     52  45  76 SW3         N/A
ROCKGLEN         N/A     55  45  67 S6          N/A
ASSINIBOIA       N/A     50  43  76 SW9         N/A
$$



USA.gov is the U.S. government's official web portal to all federal, state and local government web resources and services.